Private Wetterstation Wechselburg
Wetterdaten: Donnerstag, 27.02.2014
Datum Zeit Temp. +2m Bodentemp. Temp.+5cm Temp. Wind Windchill X Diff Temp. Feuchte +2m Feuchte +5cm Sonnenschein Luftdruck Regen Wind Richtung Richtung Sonnenschein UV Taupunkt Windchill Windben
27.02.2014 00:00 2,7 C 14,1 C 1,9 C 2,3 C 1,4 C 0,0 C 77 % 83 % 0 % 1021,3 hPa 0,0 l/m 0,0 km/h (0 Bft) O-NO 67 0 min 0,0 UV-I -0,9 C 1,4 C 0,0 km/h (0 Bft)
27.02.2014 00:05 2,7 C 14,1 C 1,9 C 2,3 C 1,4 C 0,0 C 77 % 84 % 0 % 1021,3 hPa 0,0 l/m 0,0 km/h (0 Bft) O-NO 67 0 min 0,0 UV-I -0,9 C 1,4 C 0,0 km/h (0 Bft)
27.02.2014 00:10 2,4 C 14,1 C 1,9 C 2,0 C 1,2 C 0,0 C 78 % 84 % 0 % 1021,0 hPa 0,0 l/m 0,0 km/h (0 Bft) O-NO 67 0 min 0,0 UV-I -1,0 C 1,2 C 0,0 km/h (0 Bft)
27.02.2014 00:15 2,3 C 14,1 C 1,7 C 2,0 C 1,4 C 0,0 C 78 % 83 % 0 % 1021,0 hPa 0,0 l/m 0,0 km/h (0 Bft) O-NO 67 0 min 0,0 UV-I -1,1 C 1,4 C 0,0 km/h (0 Bft)
27.02.2014 00:20 2,3 C 14,0 C 1,6 C 2,0 C 1,5 C 0,0 C 79 % 84 % 0 % 1021,0 hPa 0,0 l/m 0,0 km/h (0 Bft) O-NO 67 0 min 0,0 UV-I -1,0 C 1,5 C 0,0 km/h (0 Bft)
27.02.2014 00:25 2,5 C 14,0 C 1,7 C 2,2 C 1,7 C 0,0 C 79 % 84 % 0 % 1021,0 hPa 0,0 l/m 0,2 km/h (0 Bft) O-NO 67 0 min 0,0 UV-I -0,8 C 1,7 C 1,6 km/h (1 Bft)
27.02.2014 00:30 2,7 C 14,0 C 1,9 C 2,4 C 1,8 C 0,0 C 79 % 84 % 0 % 1021,0 hPa 0,0 l/m 0,3 km/h (0 Bft) W-SW 247 0 min 0,0 UV-I -0,6 C 1,8 C 2,3 km/h (1 Bft)
27.02.2014 00:35 2,5 C 14,1 C 1,7 C 2,1 C 1,4 C 0,0 C 79 % 84 % 0 % 1021,0 hPa 0,0 l/m 0,3 km/h (0 Bft) W-SW 247 0 min 0,0 UV-I -0,8 C 1,4 C 0,0 km/h (0 Bft)
27.02.2014 00:40 2,4 C 14,1 C 1,6 C 1,9 C 1,0 C 0,0 C 79 % 84 % 0 % 1021,0 hPa 0,0 l/m 0,2 km/h (0 Bft) W-SW 247 0 min 0,0 UV-I -0,9 C 1,0 C 0,0 km/h (0 Bft)
27.02.2014 00:45 2,1 C 14,1 C 1,4 C 1,6 C 0,6 C 0,0 C 79 % 84 % 0 % 1021,0 hPa 0,0 l/m 0,0 km/h (0 Bft) W-SW 247 0 min 0,0 UV-I -1,2 C 0,6 C 0,0 km/h (0 Bft)
27.02.2014 00:50 2,0 C 14,1 C 1,5 C 1,5 C 0,4 C 0,0 C 79 % 84 % 0 % 1021,2 hPa 0,0 l/m 0,0 km/h (0 Bft) W-SW 247 0 min 0,0 UV-I -1,2 C 0,4 C 0,0 km/h (0 Bft)
27.02.2014 00:55 2,0 C 14,1 C 1,5 C 1,5 C 0,4 C 0,0 C 80 % 84 % 0 % 1021,2 hPa 0,0 l/m 0,2 km/h (0 Bft) W-SW 247 0 min 0,0 UV-I -1,1 C 0,4 C 0,0 km/h (0 Bft)
27.02.2014 01:00 1,9 C 14,1 C 1,3 C 1,4 C 0,4 C 0,0 C 80 % 85 % 0 % 1021,2 hPa 0,0 l/m 0,2 km/h (0 Bft) W-SW 247 0 min 0,0 UV-I -1,2 C 0,4 C 0,0 km/h (0 Bft)
27.02.2014 01:05 1,7 C 14,1 C 1,2 C 1,2 C 0,2 C 0,0 C 80 % 85 % 0 % 1021,2 hPa 0,0 l/m 0,3 km/h (0 Bft) O-NO 67 0 min 0,0 UV-I -1,4 C 0,2 C 1,8 km/h (1 Bft)
27.02.2014 01:10 1,7 C 14,1 C 1,0 C 1,2 C 0,1 C 0,0 C 81 % 85 % 0 % 1021,4 hPa 0,0 l/m 0,3 km/h (0 Bft) O 90 0 min 0,0 UV-I -1,2 C 0,1 C 0,0 km/h (0 Bft)
27.02.2014 01:15 1,5 C 14,2 C 1,1 C 1,0 C 0,0 C 0,0 C 80 % 85 % 0 % 1021,4 hPa 0,0 l/m 0,2 km/h (0 Bft) O 90 0 min 0,0 UV-I -1,6 C 0,0 C 0,0 km/h (0 Bft)
27.02.2014 01:20 1,5 C 14,2 C 0,9 C 1,0 C 0,0 C 0,0 C 81 % 85 % 0 % 1021,4 hPa 0,0 l/m 0,0 km/h (0 Bft) O-NO 67 0 min 0,0 UV-I -1,4 C 0,0 C 0,0 km/h (0 Bft)
27.02.2014 01:25 1,3 C 14,2 C 0,9 C 0,9 C 0,0 C 0,0 C 81 % 85 % 0 % 1021,4 hPa 0,0 l/m 0,0 km/h (0 Bft) O-NO 67 0 min 0,0 UV-I -1,6 C 0,0 C 0,0 km/h (0 Bft)
27.02.2014 01:30 1,3 C 14,2 C 1,1 C 0,8 C -0,1 C 0,0 C 81 % 85 % 0 % 1021,2 hPa 0,0 l/m 0,0 km/h (0 Bft) O-NO 67 0 min 0,0 UV-I -1,6 C -0,1 C 0,0 km/h (0 Bft)
27.02.2014 01:35 1,2 C 14,1 C 1,0 C 0,8 C 0,0 C 0,0 C 82 % 85 % 0 % 1021,2 hPa 0,0 l/m 0,0 km/h (0 Bft) O-SO 112 0 min 0,0 UV-I -1,5 C 0,0 C 0,0 km/h (0 Bft)
27.02.2014 01:40 1,2 C 14,1 C 1,0 C 0,8 C 0,0 C 0,0 C 82 % 85 % 0 % 1021,2 hPa 0,0 l/m 0,0 km/h (0 Bft) O-SO 112 0 min 0,0 UV-I -1,5 C 0,0 C 0,0 km/h (0 Bft)
27.02.2014 01:45 1,1 C 14,1 C 0,9 C 0,7 C 0,0 C 0,0 C 82 % 85 % 0 % 1021,2 hPa 0,0 l/m 0,0 km/h (0 Bft) O-SO 112 0 min 0,0 UV-I -1,6 C 0,0 C 0,0 km/h (0 Bft)
27.02.2014 01:50 1,0 C 14,1 C 0,9 C 0,6 C -0,1 C 0,0 C 82 % 85 % 0 % 1021,2 hPa 0,0 l/m 0,0 km/h (0 Bft) SW 225 0 min 0,0 UV-I -1,7 C -0,1 C 0,0 km/h (0 Bft)
27.02.2014 01:55 1,1 C 14,1 C 1,1 C 0,8 C 0,1 C 0,0 C 83 % 85 % 0 % 1021,2 hPa 0,0 l/m 0,2 km/h (0 Bft) SW 225 0 min 0,0 UV-I -1,5 C 0,1 C 0,0 km/h (0 Bft)
27.02.2014 02:00 1,2 C 14,1 C 1,1 C 0,8 C 0,1 C 0,0 C 83 % 85 % 0 % 1021,2 hPa 0,0 l/m 0,2 km/h (0 Bft) SW 225 0 min 0,0 UV-I -1,4 C 0,1 C 0,0 km/h (0 Bft)
27.02.2014 02:05 1,2 C 14,1 C 1,1 C 0,9 C 0,2 C 0,0 C 83 % 85 % 0 % 1021,2 hPa 0,0 l/m 0,5 km/h (0 Bft) W-SW 247 0 min 0,0 UV-I -1,4 C 0,2 C 2,4 km/h (1 Bft)
27.02.2014 02:10 1,1 C 14,1 C 1,1 C 0,8 C 0,1 C 0,0 C 83 % 85 % 0 % 1021,6 hPa 0,0 l/m 0,5 km/h (0 Bft) W-SW 247 0 min 0,0 UV-I -1,5 C 0,1 C 0,0 km/h (0 Bft)
27.02.2014 02:15 1,0 C 14,1 C 0,9 C 0,6 C -0,1 C 0,0 C 83 % 85 % 0 % 1021,6 hPa 0,0 l/m 0,0 km/h (0 Bft) W-SW 247 0 min 0,0 UV-I -1,6 C -0,1 C 0,0 km/h (0 Bft)
27.02.2014 02:20 1,1 C 14,1 C 0,9 C 0,7 C -0,2 C 0,0 C 83 % 85 % 0 % 1021,6 hPa 0,0 l/m 0,0 km/h (0 Bft) W-SW 247 0 min 0,0 UV-I -1,5 C -0,2 C 0,0 km/h (0 Bft)
27.02.2014 02:25 0,8 C 14,1 C 0,7 C 0,4 C -0,3 C 0,0 C 83 % 85 % 0 % 1021,6 hPa 0,0 l/m 0,0 km/h (0 Bft) O-SO 112 0 min 0,0 UV-I -1,8 C -0,3 C 0,0 km/h (0 Bft)
27.02.2014 02:30 0,8 C 14,1 C 0,7 C 0,5 C -0,2 C 0,0 C 83 % 85 % 0 % 1020,9 hPa 0,0 l/m 0,0 km/h (0 Bft) O-SO 112 0 min 0,0 UV-I -1,8 C -0,2 C 0,0 km/h (0 Bft)
27.02.2014 02:35 0,9 C 14,1 C 0,8 C 0,5 C -0,2 C 0,0 C 84 % 85 % 0 % 1020,9 hPa 0,0 l/m 0,0 km/h (0 Bft) O-SO 112 0 min 0,0 UV-I -1,5 C -0,2 C 0,0 km/h (0 Bft)
27.02.2014 02:40 0,8 C 14,1 C 0,8 C 0,5 C -0,2 C 0,0 C 84 % 86 % 0 % 1020,9 hPa 0,0 l/m 0,0 km/h (0 Bft) O-SO 112 0 min 0,0 UV-I -1,6 C -0,2 C 0,0 km/h (0 Bft)
27.02.2014 02:45 0,8 C 14,1 C 0,8 C 0,5 C -0,1 C 0,0 C 84 % 86 % 0 % 1020,9 hPa 0,0 l/m 0,0 km/h (0 Bft) O-SO 112 0 min 0,0 UV-I -1,6 C -0,1 C 0,0 km/h (0 Bft)
27.02.2014 02:50 0,8 C 14,1 C 0,7 C 0,5 C -0,1 C 0,0 C 84 % 86 % 0 % 1021,6 hPa 0,0 l/m 0,0 km/h (0 Bft) O-SO 112 0 min 0,0 UV-I -1,6 C -0,1 C 0,0 km/h (0 Bft)
27.02.2014 02:55 0,8 C 14,1 C 0,9 C 0,5 C 0,0 C 0,0 C 84 % 86 % 0 % 1021,6 hPa 0,0 l/m 0,0 km/h (0 Bft) O-SO 112 0 min 0,0 UV-I -1,6 C 0,0 C 0,0 km/h (0 Bft)
27.02.2014 03:00 0,8 C 14,1 C 0,8 C 0,6 C 0,1 C 0,0 C 84 % 86 % 0 % 1021,6 hPa 0,0 l/m 0,0 km/h (0 Bft) O-SO 112 0 min 0,0 UV-I -1,6 C 0,1 C 0,0 km/h (0 Bft)
27.02.2014 03:05 0,8 C 14,0 C 0,8 C 0,6 C 0,2 C 0,0 C 84 % 86 % 0 % 1021,6 hPa 0,0 l/m 0,0 km/h (0 Bft) O-SO 112 0 min 0,0 UV-I -1,6 C 0,2 C 0,0 km/h (0 Bft)
27.02.2014 03:10 0,7 C 14,0 C 0,8 C 0,5 C 0,0 C 0,0 C 84 % 86 % 0 % 1021,6 hPa 0,0 l/m 0,0 km/h (0 Bft) S 180 0 min 0,0 UV-I -1,7 C 0,0 C 0,0 km/h (0 Bft)
27.02.2014 03:15 0,6 C 14,0 C 0,8 C 0,4 C -0,1 C 0,0 C 84 % 86 % 0 % 1021,6 hPa 0,0 l/m 0,0 km/h (0 Bft) S 180 0 min 0,0 UV-I -1,8 C -0,1 C 0,0 km/h (0 Bft)
27.02.2014 03:20 0,7 C 14,0 C 0,8 C 0,4 C -0,1 C 0,0 C 85 % 86 % 0 % 1021,6 hPa 0,0 l/m 0,0 km/h (0 Bft) S-SW 202 0 min 0,0 UV-I -1,5 C -0,1 C 0,0 km/h (0 Bft)
27.02.2014 03:25 0,6 C 14,0 C 0,8 C 0,3 C -0,2 C 0,0 C 85 % 86 % 0 % 1021,6 hPa 0,0 l/m 0,0 km/h (0 Bft) S-SW 202 0 min 0,0 UV-I -1,6 C -0,2 C 0,0 km/h (0 Bft)
27.02.2014 03:30 0,5 C 14,0 C 0,8 C 0,3 C -0,2 C 0,0 C 85 % 86 % 0 % 1020,9 hPa 0,0 l/m 0,0 km/h (0 Bft) S-SW 202 0 min 0,0 UV-I -1,7 C -0,2 C 0,0 km/h (0 Bft)
27.02.2014 03:35 0,5 C 14,0 C 0,8 C 0,3 C -0,2 C 0,0 C 85 % 86 % 0 % 1020,9 hPa 0,0 l/m 0,0 km/h (0 Bft) SW 225 0 min 0,0 UV-I -1,7 C -0,2 C 0,0 km/h (0 Bft)
27.02.2014 03:40 0,4 C 13,8 C 0,8 C 0,2 C -0,1 C 0,0 C 85 % 86 % 0 % 1020,9 hPa 0,0 l/m 0,3 km/h (0 Bft) W-SW 247 0 min 0,0 UV-I -1,8 C -0,1 C 1,9 km/h (1 Bft)
27.02.2014 03:45 0,5 C 13,8 C 0,8 C 0,3 C -0,2 C 0,0 C 85 % 86 % 0 % 1020,9 hPa 0,0 l/m 0,5 km/h (0 Bft) W 270 0 min 0,0 UV-I -1,7 C -0,2 C 2,7 km/h (1 Bft)
27.02.2014 03:50 0,4 C 14,0 C 0,7 C 0,2 C -0,3 C 0,0 C 85 % 86 % 0 % 1021,1 hPa 0,0 l/m 0,3 km/h (0 Bft) W 270 0 min 0,0 UV-I -1,8 C -0,3 C 0,0 km/h (0 Bft)
27.02.2014 03:55 0,3 C 14,0 C 0,7 C 0,1 C -0,3 C 0,0 C 85 % 86 % 0 % 1021,1 hPa 0,0 l/m 0,0 km/h (0 Bft) W 270 0 min 0,0 UV-I -1,9 C -0,3 C 0,0 km/h (0 Bft)
27.02.2014 04:00 0,3 C 14,0 C 0,7 C 0,1 C -0,3 C 0,0 C 85 % 86 % 0 % 1021,1 hPa 0,0 l/m 0,0 km/h (0 Bft) W 270 0 min 0,0 UV-I -1,9 C -0,3 C 0,0 km/h (0 Bft)
27.02.2014 04:05 0,3 C 14,0 C 0,7 C 0,1 C -0,2 C 0,0 C 85 % 86 % 0 % 1021,1 hPa 0,0 l/m 0,0 km/h (0 Bft) O-NO 67 0 min 0,0 UV-I -1,9 C -0,2 C 0,0 km/h (0 Bft)
27.02.2014 04:10 0,3 C 14,0 C 0,7 C 0,2 C -0,1 C 0,0 C 85 % 86 % 0 % 1021,2 hPa 0,0 l/m 0,0 km/h (0 Bft) O-NO 67 0 min 0,0 UV-I -1,9 C -0,1 C 0,0 km/h (0 Bft)
27.02.2014 04:15 0,3 C 13,8 C 0,7 C 0,2 C -0,1 C 0,0 C 85 % 86 % 0 % 1021,2 hPa 0,0 l/m 0,0 km/h (0 Bft) O-NO 67 0 min 0,0 UV-I -1,9 C -0,1 C 0,0 km/h (0 Bft)
27.02.2014 04:20 0,3 C 13,8 C 0,7 C 0,2 C -0,1 C 0,0 C 85 % 86 % 0 % 1021,2 hPa 0,0 l/m 0,0 km/h (0 Bft) O-NO 67 0 min 0,0 UV-I -1,9 C -0,1 C 0,0 km/h (0 Bft)
27.02.2014 04:25 0,3 C 13,8 C 0,7 C 0,1 C -0,2 C 0,0 C 85 % 86 % 0 % 1021,2 hPa 0,0 l/m 0,0 km/h (0 Bft) O-NO 67 0 min 0,0 UV-I -1,9 C -0,2 C 0,0 km/h (0 Bft)
27.02.2014 04:30 0,2 C 13,8 C 0,7 C 0,0 C -0,3 C 0,0 C 85 % 86 % 0 % 1021,2 hPa 0,0 l/m 0,0 km/h (0 Bft) O-NO 67 0 min 0,0 UV-I -2,0 C -0,3 C 0,0 km/h (0 Bft)
27.02.2014 04:35 0,1 C 13,8 C 0,7 C 0,0 C -0,3 C 0,0 C 85 % 86 % 0 % 1021,2 hPa 0,0 l/m 0,0 km/h (0 Bft) O-SO 112 0 min 0,0 UV-I -2,1 C -0,3 C 0,0 km/h (0 Bft)
27.02.2014 04:40 0,1 C 13,8 C 0,6 C -0,1 C -0,4 C 0,0 C 85 % 86 % 0 % 1021,2 hPa 0,0 l/m 0,0 km/h (0 Bft) O-SO 112 0 min 0,0 UV-I -2,1 C -0,4 C 0,0 km/h (0 Bft)
27.02.2014 04:45 0,1 C 13,8 C 0,7 C 0,0 C -0,3 C 0,0 C 85 % 86 % 0 % 1021,2 hPa 0,0 l/m 0,0 km/h (0 Bft) O-NO 67 0 min 0,0 UV-I -2,1 C -0,3 C 0,0 km/h (0 Bft)
27.02.2014 04:50 0,1 C 13,8 C 0,7 C 0,0 C -0,2 C 0,0 C 86 % 86 % 0 % 1020,9 hPa 0,0 l/m 0,0 km/h (0 Bft) O-NO 67 0 min 0,0 UV-I -2,0 C -0,2 C 0,0 km/h (0 Bft)
27.02.2014 04:55 0,0 C 13,7 C 0,7 C 0,0 C -0,1 C 0,0 C 86 % 86 % 0 % 1020,9 hPa 0,0 l/m 0,0 km/h (0 Bft) O-NO 67 0 min 0,0 UV-I -2,1 C -0,1 C 0,0 km/h (0 Bft)
27.02.2014 05:00 0,0 C 13,7 C 0,7 C 0,1 C 0,1 C 0,1 C 86 % 86 % 0 % 1020,9 hPa 0,0 l/m 0,0 km/h (0 Bft) O-NO 67 0 min 0,0 UV-I -2,1 C 0,1 C 0,0 km/h (0 Bft)
27.02.2014 05:05 0,1 C 13,7 C 0,8 C 0,3 C 0,3 C 0,2 C 86 % 86 % 0 % 1020,9 hPa 0,0 l/m 0,0 km/h (0 Bft) O-NO 67 0 min 0,0 UV-I -2,0 C 0,3 C 0,0 km/h (0 Bft)
27.02.2014 05:10 0,1 C 13,7 C 0,9 C 0,4 C 0,4 C 0,3 C 86 % 87 % 0 % 1021,4 hPa 0,0 l/m 0,0 km/h (0 Bft) O-NO 67 0 min 0,0 UV-I -2,0 C 0,4 C 0,0 km/h (0 Bft)
27.02.2014 05:15 0,2 C 13,7 C 0,9 C 0,5 C 0,5 C 0,3 C 86 % 87 % 0 % 1021,4 hPa 0,0 l/m 0,0 km/h (0 Bft) O-SO 112 0 min 0,0 UV-I -1,9 C 0,5 C 0,0 km/h (0 Bft)
27.02.2014 05:20 0,1 C 13,7 C 0,9 C 0,5 C 0,5 C 0,4 C 86 % 86 % 0 % 1021,4 hPa 0,0 l/m 0,0 km/h (0 Bft) O-SO 112 0 min 0,0 UV-I -2,0 C 0,5 C 0,0 km/h (0 Bft)
27.02.2014 05:25 0,3 C 13,7 C 0,8 C 0,6 C 0,6 C 0,3 C 86 % 86 % 0 % 1021,4 hPa 0,0 l/m 0,0 km/h (0 Bft) O-NO 67 0 min 0,0 UV-I -1,8 C 0,6 C 0,0 km/h (0 Bft)
27.02.2014 05:30 0,3 C 13,7 C 1,0 C 0,8 C 0,8 C 0,5 C 86 % 87 % 0 % 1021,3 hPa 0,0 l/m 0,2 km/h (0 Bft) O-NO 67 0 min 0,0 UV-I -1,8 C 0,8 C 0,0 km/h (0 Bft)
27.02.2014 05:35 0,4 C 13,7 C 1,0 C 0,9 C 0,9 C 0,5 C 86 % 86 % 0 % 1021,3 hPa 0,0 l/m 0,2 km/h (0 Bft) O-NO 67 0 min 0,0 UV-I -1,7 C 0,9 C 0,0 km/h (0 Bft)
27.02.2014 05:40 0,4 C 13,6 C 1,1 C 0,9 C 0,9 C 0,5 C 86 % 87 % 0 % 1021,3 hPa 0,0 l/m 0,0 km/h (0 Bft) O-NO 67 0 min 0,0 UV-I -1,7 C 0,9 C 0,0 km/h (0 Bft)
27.02.2014 05:45 0,5 C 13,6 C 1,0 C 0,9 C 0,9 C 0,4 C 86 % 86 % 0 % 1021,3 hPa 0,0 l/m 0,0 km/h (0 Bft) O-SO 112 0 min 0,0 UV-I -1,6 C 0,9 C 0,0 km/h (0 Bft)
27.02.2014 05:50 0,5 C 13,6 C 1,1 C 0,9 C 0,9 C 0,4 C 86 % 87 % 0 % 1021,4 hPa 0,0 l/m 0,0 km/h (0 Bft) O-SO 112 0 min 0,0 UV-I -1,6 C 0,9 C 0,0 km/h (0 Bft)
27.02.2014 05:55 0,6 C 13,6 C 1,1 C 0,9 C 0,9 C 0,3 C 86 % 87 % 0 % 1021,4 hPa 0,0 l/m 0,0 km/h (0 Bft) O-NO 67 0 min 0,0 UV-I -1,5 C 0,9 C 0,0 km/h (0 Bft)
27.02.2014 06:00 0,7 C 13,6 C 1,1 C 1,0 C 1,0 C 0,3 C 86 % 87 % 0 % 1021,4 hPa 0,0 l/m 0,0 km/h (0 Bft) O-NO 67 0 min 0,0 UV-I -1,4 C 1,0 C 0,0 km/h (0 Bft)
27.02.2014 06:05 0,7 C 13,6 C 1,1 C 1,0 C 1,0 C 0,3 C 86 % 87 % 0 % 1021,4 hPa 0,0 l/m 0,0 km/h (0 Bft) O-NO 67 0 min 0,0 UV-I -1,4 C 1,0 C 0,0 km/h (0 Bft)
27.02.2014 06:10 0,8 C 13,6 C 1,2 C 1,0 C 1,0 C 0,2 C 86 % 87 % 0 % 1021,4 hPa 0,0 l/m 0,0 km/h (0 Bft) O-SO 112 0 min 0,0 UV-I -1,3 C 1,0 C 0,0 km/h (0 Bft)
27.02.2014 06:15 0,9 C 13,6 C 1,3 C 1,1 C 1,1 C 0,2 C 86 % 87 % 0 % 1021,4 hPa 0,0 l/m 0,0 km/h (0 Bft) O-SO 112 0 min 0,0 UV-I -1,2 C 1,1 C 0,0 km/h (0 Bft)
27.02.2014 06:20 1,1 C 13,6 C 1,5 C 1,3 C 1,3 C 0,2 C 86 % 87 % 0 % 1021,4 hPa 0,0 l/m 0,0 km/h (0 Bft) O-NO 67 0 min 0,0 UV-I -1,0 C 1,3 C 0,0 km/h (0 Bft)
27.02.2014 06:25 1,2 C 13,6 C 1,4 C 1,4 C 1,4 C 0,2 C 86 % 87 % 0 % 1021,4 hPa 0,0 l/m 0,0 km/h (0 Bft) SO 135 0 min 0,0 UV-I -0,9 C 1,4 C 0,0 km/h (0 Bft)
27.02.2014 06:30 1,3 C 13,6 C 1,5 C 1,5 C 1,5 C 0,2 C 86 % 87 % 0 % 1021,3 hPa 0,0 l/m 0,0 km/h (0 Bft) O-NO 67 0 min 0,0 UV-I -0,8 C 1,5 C 0,0 km/h (0 Bft)
27.02.2014 06:35 1,3 C 13,6 C 1,6 C 1,6 C 1,6 C 0,3 C 86 % 87 % 0 % 1021,3 hPa 0,0 l/m 0,0 km/h (0 Bft) O 90 0 min 0,0 UV-I -0,8 C 1,6 C 0,0 km/h (0 Bft)
27.02.2014 06:40 1,3 C 13,5 C 1,6 C 1,6 C 1,6 C 0,3 C 86 % 87 % 0 % 1021,3 hPa 0,0 l/m 0,0 km/h (0 Bft) S-SW 202 0 min 0,0 UV-I -0,8 C 1,6 C 0,0 km/h (0 Bft)
27.02.2014 06:45 1,5 C 13,5 C 1,8 C 1,8 C 1,8 C 0,3 C 86 % 87 % 0 % 1021,3 hPa 0,0 l/m 0,0 km/h (0 Bft) SW 225 0 min 0,0 UV-I -0,6 C 1,8 C 4,3 km/h (1 Bft)
27.02.2014 06:50 1,5 C 13,5 C 2,1 C 1,9 C 1,9 C 0,4 C 86 % 87 % 0 % 1021,5 hPa 0,0 l/m 1,0 km/h (0 Bft) S 180 0 min 0,0 UV-I -0,6 C 1,9 C 1,8 km/h (1 Bft)
27.02.2014 06:55 1,7 C 13,5 C 2,3 C 2,2 C 2,2 C 0,5 C 86 % 87 % 0 % 1021,5 hPa 0,0 l/m 2,3 km/h (1 Bft) SO 135 0 min 0,0 UV-I -0,4 C 2,2 C 5,8 km/h (2 Bft)
27.02.2014 07:00 1,9 C 13,5 C 2,3 C 2,2 C 2,2 C 0,3 C 86 % 87 % 0 % 1021,5 hPa 0,0 l/m 1,6 km/h (1 Bft) SO 135 0 min 0,0 UV-I -0,2 C 2,2 C 1,6 km/h (1 Bft)
27.02.2014 07:05 1,9 C 13,5 C 2,4 C 2,4 C 2,4 C 0,5 C 86 % 86 % 0 % 1021,5 hPa 0,0 l/m 0,6 km/h (0 Bft) O-NO 67 0 min 0,0 UV-I -0,2 C 2,4 C 0,0 km/h (0 Bft)
27.02.2014 07:10 2,0 C 13,5 C 2,4 C 2,5 C 2,5 C 0,5 C 86 % 86 % 13 % 1021,4 hPa 0,0 l/m 0,5 km/h (0 Bft) S 180 5 min 0,0 UV-I -0,1 C 2,5 C 0,0 km/h (0 Bft)
27.02.2014 07:15 2,0 C 13,5 C 2,5 C 2,6 C 2,6 C 0,6 C 86 % 87 % 16 % 1021,4 hPa 0,0 l/m 0,6 km/h (0 Bft) W-SW 247 5 min 0,0 UV-I -0,1 C 2,6 C 0,0 km/h (0 Bft)
27.02.2014 07:20 2,1 C 13,5 C 2,5 C 2,6 C 2,6 C 0,5 C 86 % 87 % 13 % 1021,4 hPa 0,0 l/m 0,5 km/h (0 Bft) W-SW 247 5 min 0,0 UV-I 0,0 C 2,6 C 0,0 km/h (0 Bft)
27.02.2014 07:25 2,3 C 13,5 C 2,6 C 2,8 C 2,8 C 0,5 C 86 % 87 % 13 % 1021,4 hPa 0,0 l/m 0,3 km/h (0 Bft) S-SO 157 0 min 0,0 UV-I 0,2 C 2,8 C 0,0 km/h (0 Bft)
27.02.2014 07:30 2,2 C 13,5 C 2,7 C 3,0 C 3,0 C 0,8 C 86 % 87 % 21 % 1020,6 hPa 0,0 l/m 0,3 km/h (0 Bft) W-SW 247 5 min 0,0 UV-I 0,1 C 3,0 C 0,0 km/h (0 Bft)
27.02.2014 07:35 2,4 C 13,5 C 2,8 C 3,1 C 3,1 C 0,7 C 86 % 87 % 18 % 1020,6 hPa 0,0 l/m 0,2 km/h (0 Bft) S-SO 157 0 min 0,0 UV-I 0,3 C 3,1 C 0,0 km/h (0 Bft)
27.02.2014 07:40 2,5 C 13,5 C 2,8 C 3,2 C 3,2 C 0,7 C 86 % 87 % 18 % 1020,6 hPa 0,0 l/m 0,2 km/h (0 Bft) W 270 0 min 0,0 UV-I 0,4 C 3,2 C 0,0 km/h (0 Bft)
27.02.2014 07:45 2,4 C 13,5 C 3,0 C 3,3 C 3,3 C 0,9 C 86 % 87 % 24 % 1020,6 hPa 0,0 l/m 0,0 km/h (0 Bft) S-SW 202 0 min 0,0 UV-I 0,3 C 3,3 C 0,0 km/h (0 Bft)
27.02.2014 07:50 2,5 C 13,5 C 3,1 C 3,4 C 3,4 C 0,9 C 86 % 87 % 24 % 1021,8 hPa 0,0 l/m 0,0 km/h (0 Bft) SW 225 0 min 0,0 UV-I 0,4 C 3,4 C 0,0 km/h (0 Bft)
27.02.2014 07:55 2,5 C 13,5 C 3,2 C 3,7 C 3,7 C 1,2 C 86 % 87 % 32 % 1021,8 hPa 0,0 l/m 0,2 km/h (0 Bft) S-SO 157 0 min 0,0 UV-I 0,4 C 3,7 C 0,0 km/h (0 Bft)
27.02.2014 08:00 2,7 C 13,4 C 3,2 C 3,8 C 3,8 C 1,1 C 86 % 87 % 29 % 1021,8 hPa 0,0 l/m 0,5 km/h (0 Bft) S-SW 202 0 min 0,0 UV-I 0,6 C 3,8 C 0,0 km/h (0 Bft)
27.02.2014 08:05 2,8 C 13,5 C 3,4 C 4,1 C 4,1 C 1,3 C 86 % 87 % 34 % 1021,8 hPa 0,0 l/m 0,3 km/h (0 Bft) S 180 0 min 0,0 UV-I 0,7 C 4,1 C 1,8 km/h (1 Bft)
27.02.2014 08:10 2,9 C 13,5 C 3,5 C 4,2 C 4,2 C 1,3 C 86 % 86 % 34 % 1021,5 hPa 0,0 l/m 0,0 km/h (0 Bft) S 180 0 min 0,0 UV-I 0,8 C 4,2 C 0,0 km/h (0 Bft)
27.02.2014 08:15 3,1 C 13,4 C 3,6 C 4,4 C 4,4 C 1,3 C 86 % 86 % 34 % 1021,5 hPa 0,0 l/m 0,2 km/h (0 Bft) S 180 0 min 0,0 UV-I 1,0 C 4,4 C 0,0 km/h (0 Bft)
27.02.2014 08:20 3,2 C 13,5 C 3,7 C 4,4 C 4,4 C 1,2 C 86 % 86 % 32 % 1021,5 hPa 0,0 l/m 0,2 km/h (0 Bft) SO 135 0 min 0,0 UV-I 1,1 C 4,4 C 0,0 km/h (0 Bft)
27.02.2014 08:25 3,3 C 13,4 C 3,8 C 4,6 C 4,6 C 1,3 C 86 % 86 % 34 % 1021,5 hPa 0,0 l/m 0,0 km/h (0 Bft) NW 315 0 min 0,0 UV-I 1,2 C 4,6 C 0,0 km/h (0 Bft)
27.02.2014 08:30 3,3 C 13,4 C 4,0 C 4,8 C 4,8 C 1,5 C 86 % 86 % 39 % 1021,4 hPa 0,0 l/m 0,0 km/h (0 Bft) W-SW 247 0 min 0,0 UV-I 1,2 C 4,8 C 0,0 km/h (0 Bft)
27.02.2014 08:35 3,5 C 13,3 C 4,0 C 5,0 C 5,0 C 1,5 C 86 % 86 % 39 % 1021,4 hPa 0,0 l/m 0,2 km/h (0 Bft) O 90 0 min 0,0 UV-I 1,4 C 5,0 C 0,0 km/h (0 Bft)
27.02.2014 08:40 3,6 C 13,3 C 4,3 C 5,1 C 5,1 C 1,5 C 86 % 86 % 39 % 1021,4 hPa 0,0 l/m 0,5 km/h (0 Bft) S 180 0 min 0,0 UV-I 1,5 C 5,1 C 0,0 km/h (0 Bft)
27.02.2014 08:45 3,8 C 13,3 C 4,2 C 5,3 C 5,3 C 1,5 C 85 % 86 % 39 % 1021,4 hPa 0,0 l/m 0,6 km/h (0 Bft) S 180 0 min 0,0 UV-I 1,5 C 5,3 C 2,1 km/h (1 Bft)
27.02.2014 08:50 3,8 C 13,3 C 4,3 C 5,3 C 5,3 C 1,5 C 85 % 86 % 39 % 1021,7 hPa 0,0 l/m 0,6 km/h (0 Bft) S-SO 157 0 min 0,0 UV-I 1,5 C 5,3 C 3,2 km/h (1 Bft)
27.02.2014 08:55 4,1 C 13,3 C 4,4 C 5,5 C 5,5 C 1,4 C 85 % 86 % 37 % 1021,7 hPa 0,0 l/m 0,5 km/h (0 Bft) O-SO 112 0 min 0,0 UV-I 1,8 C 5,5 C 0,0 km/h (0 Bft)
27.02.2014 09:00 4,0 C 13,3 C 4,5 C 5,5 C 5,5 C 1,5 C 85 % 86 % 39 % 1021,7 hPa 0,0 l/m 0,3 km/h (0 Bft) S 180 0 min 0,0 UV-I 1,7 C 5,5 C 1,8 km/h (1 Bft)
27.02.2014 09:05 4,3 C 13,4 C 4,7 C 5,7 C 5,7 C 1,4 C 85 % 86 % 37 % 1021,7 hPa 0,0 l/m 0,0 km/h (0 Bft) W 270 0 min 0,0 UV-I 2,0 C 5,7 C 0,0 km/h (0 Bft)
27.02.2014 09:10 4,3 C 13,4 C 4,7 C 5,7 C 5,7 C 1,4 C 85 % 86 % 37 % 1021,6 hPa 0,0 l/m 1,0 km/h (0 Bft) W-SW 247 0 min 0,0 UV-I 2,0 C 5,7 C 3,1 km/h (1 Bft)
27.02.2014 09:15 4,4 C 13,4 C 4,8 C 5,8 C 5,8 C 1,4 C 85 % 86 % 37 % 1021,6 hPa 0,0 l/m 1,1 km/h (1 Bft) W-SW 247 0 min 0,0 UV-I 2,1 C 5,8 C 0,0 km/h (0 Bft)
27.02.2014 09:20 4,5 C 13,4 C 4,8 C 5,8 C 5,8 C 1,3 C 85 % 86 % 34 % 1021,6 hPa 0,0 l/m 0,5 km/h (0 Bft) SW 225 0 min 0,0 UV-I 2,2 C 5,8 C 0,0 km/h (0 Bft)
27.02.2014 09:25 4,4 C 13,3 C 4,9 C 6,1 C 6,1 C 1,7 C 85 % 86 % 45 % 1021,6 hPa 0,0 l/m 0,0 km/h (0 Bft) S 180 0 min 0,0 UV-I 2,1 C 6,1 C 0,0 km/h (0 Bft)
27.02.2014 09:30 4,6 C 13,4 C 5,1 C 6,2 C 6,2 C 1,6 C 85 % 85 % 42 % 1021,6 hPa 0,0 l/m 0,0 km/h (0 Bft) NO 45 0 min 0,0 UV-I 2,3 C 6,2 C 0,0 km/h (0 Bft)
27.02.2014 09:35 4,7 C 13,3 C 5,2 C 6,4 C 6,4 C 1,7 C 85 % 85 % 45 % 1021,6 hPa 0,0 l/m 0,0 km/h (0 Bft) NO 45 0 min 0,0 UV-I 2,4 C 6,4 C 0,0 km/h (0 Bft)
27.02.2014 09:40 4,8 C 13,3 C 5,3 C 6,5 C 6,5 C 1,7 C 85 % 85 % 45 % 1021,6 hPa 0,0 l/m 0,0 km/h (0 Bft) S-SO 157 0 min 0,0 UV-I 2,5 C 6,5 C 1,9 km/h (1 Bft)
27.02.2014 09:45 5,0 C 13,4 C 5,3 C 6,6 C 6,6 C 1,6 C 85 % 85 % 42 % 1021,6 hPa 0,0 l/m 0,6 km/h (0 Bft) S-SW 202 0 min 0,0 UV-I 2,7 C 6,6 C 2,9 km/h (1 Bft)
27.02.2014 09:50 5,0 C 13,4 C 5,4 C 6,6 C 6,6 C 1,6 C 85 % 85 % 42 % 1021,7 hPa 0,0 l/m 1,6 km/h (1 Bft) S-SO 157 0 min 0,0 UV-I 2,7 C 6,6 C 4,0 km/h (1 Bft)
27.02.2014 09:55 5,1 C 13,4 C 5,5 C 6,5 C 6,5 C 1,4 C 84 % 85 % 37 % 1021,7 hPa 0,0 l/m 2,3 km/h (1 Bft) S-SW 202 0 min 0,0 UV-I 2,6 C 6,5 C 2,4 km/h (1 Bft)
27.02.2014 10:00 5,2 C 13,4 C 5,5 C 6,5 C 6,5 C 1,3 C 84 % 85 % 34 % 1021,7 hPa 0,0 l/m 1,8 km/h (1 Bft) S-SW 202 0 min 0,0 UV-I 2,7 C 6,5 C 2,4 km/h (1 Bft)
27.02.2014 10:05 5,2 C 13,4 C 5,6 C 6,6 C 6,6 C 1,4 C 84 % 85 % 37 % 1021,7 hPa 0,0 l/m 1,1 km/h (1 Bft) S-SO 157 0 min 0,0 UV-I 2,7 C 6,6 C 2,1 km/h (1 Bft)
27.02.2014 10:10 5,3 C 13,4 C 5,8 C 6,8 C 6,8 C 1,5 C 84 % 85 % 39 % 1021,2 hPa 0,0 l/m 1,1 km/h (1 Bft) S-SO 157 0 min 0,0 UV-I 2,8 C 6,8 C 0,0 km/h (0 Bft)
27.02.2014 10:15 5,4 C 13,4 C 5,8 C 6,9 C 6,9 C 1,5 C 84 % 84 % 39 % 1021,2 hPa 0,0 l/m 0,8 km/h (0 Bft) S 180 0 min 0,0 UV-I 2,9 C 6,9 C 0,0 km/h (0 Bft)
27.02.2014 10:20 5,5 C 13,4 C 6,0 C 7,1 C 7,1 C 1,6 C 84 % 84 % 42 % 1021,2 hPa 0,0 l/m 1,0 km/h (0 Bft) S 180 0 min 0,0 UV-I 3,0 C 7,1 C 3,5 km/h (1 Bft)
27.02.2014 10:25 5,7 C 13,4 C 6,1 C 7,1 C 7,1 C 1,4 C 84 % 85 % 37 % 1021,2 hPa 0,0 l/m 1,6 km/h (1 Bft) W-SW 247 0 min 0,0 UV-I 3,2 C 7,1 C 3,2 km/h (1 Bft)
27.02.2014 10:30 5,7 C 13,4 C 6,0 C 7,2 C 7,2 C 1,5 C 84 % 84 % 39 % 1021,2 hPa 0,0 l/m 1,8 km/h (1 Bft) S-SO 157 0 min 0,0 UV-I 3,2 C 7,2 C 2,9 km/h (1 Bft)
27.02.2014 10:35 5,9 C 13,4 C 6,2 C 7,2 C 7,2 C 1,3 C 84 % 84 % 34 % 1021,2 hPa 0,0 l/m 2,4 km/h (1 Bft) S 180 0 min 0,0 UV-I 3,4 C 7,2 C 2,9 km/h (1 Bft)
27.02.2014 10:40 5,9 C 13,4 C 6,2 C 7,2 C 7,2 C 1,3 C 84 % 84 % 34 % 1021,2 hPa 0,0 l/m 2,1 km/h (1 Bft) S 180 0 min 0,0 UV-I 3,4 C 7,2 C 4,5 km/h (1 Bft)
27.02.2014 10:45 5,9 C 13,4 C 6,4 C 7,4 C 7,4 C 1,5 C 84 % 84 % 39 % 1021,2 hPa 0,0 l/m 1,3 km/h (1 Bft) SW 225 0 min 0,0 UV-I 3,4 C 7,4 C 0,0 km/h (0 Bft)
27.02.2014 10:50 6,1 C 13,4 C 6,7 C 7,7 C 7,7 C 1,6 C 84 % 84 % 42 % 1021,2 hPa 0,0 l/m 1,0 km/h (0 Bft) W-SW 247 0 min 0,0 UV-I 3,6 C 7,7 C 0,0 km/h (0 Bft)
27.02.2014 10:55 6,2 C 13,4 C 6,7 C 8,0 C 8,0 C 1,8 C 84 % 84 % 47 % 1021,2 hPa 0,0 l/m 1,4 km/h (1 Bft) S-SO 157 0 min 0,0 UV-I 3,7 C 8,0 C 6,9 km/h (2 Bft)
27.02.2014 11:00 6,2 C 13,4 C 6,8 C 8,1 C 8,1 C 1,9 C 84 % 84 % 50 % 1021,2 hPa 0,0 l/m 1,9 km/h (1 Bft) W-SW 247 0 min 0,0 UV-I 3,7 C 8,1 C 2,3 km/h (1 Bft)
27.02.2014 11:05 6,4 C 13,4 C 6,9 C 8,3 C 8,3 C 1,9 C 84 % 84 % 50 % 1021,2 hPa 0,0 l/m 1,6 km/h (1 Bft) W 270 0 min 0,0 UV-I 3,9 C 8,3 C 4,5 km/h (1 Bft)
27.02.2014 11:10 6,5 C 13,4 C 7,2 C 8,6 C 8,6 C 2,1 C 83 % 84 % 55 % 1021,0 hPa 0,0 l/m 1,8 km/h (1 Bft) W-SW 247 0 min 0,0 UV-I 3,8 C 8,6 C 4,0 km/h (1 Bft)
27.02.2014 11:15 6,7 C 13,5 C 7,5 C 8,9 C 8,9 C 2,2 C 84 % 84 % 58 % 1021,0 hPa 0,0 l/m 1,8 km/h (1 Bft) O 90 0 min 0,0 UV-I 4,2 C 8,9 C 0,0 km/h (0 Bft)
27.02.2014 11:20 6,9 C 13,5 C 7,7 C 9,2 C 9,2 C 2,3 C 84 % 83 % 61 % 1021,0 hPa 0,0 l/m 1,1 km/h (1 Bft) S-SO 157 0 min 0,0 UV-I 4,4 C 9,2 C 0,0 km/h (0 Bft)
27.02.2014 11:25 7,0 C 13,4 C 8,0 C 9,9 C 9,9 C 2,9 C 83 % 83 % 76 % 1021,0 hPa 0,0 l/m 0,5 km/h (0 Bft) NO 45 0 min 0,0 UV-I 4,3 C 9,9 C 3,7 km/h (1 Bft)
27.02.2014 11:30 7,2 C 13,4 C 8,1 C 10,0 C 10,0 C 2,8 C 83 % 83 % 74 % 1021,0 hPa 0,0 l/m 1,4 km/h (1 Bft) W-SW 247 0 min 0,0 UV-I 4,5 C 10,0 C 7,4 km/h (2 Bft)
27.02.2014 11:35 7,3 C 13,4 C 8,3 C 9,9 C 9,9 C 2,6 C 82 % 82 % 68 % 1021,0 hPa 0,0 l/m 4,0 km/h (1 Bft) W-SW 247 0 min 0,0 UV-I 4,4 C 9,9 C 9,2 km/h (2 Bft)
27.02.2014 11:40 7,3 C 13,4 C 8,3 C 9,2 C 9,2 C 1,9 C 82 % 82 % 50 % 1021,0 hPa 0,0 l/m 5,5 km/h (1 Bft) SW 225 0 min 0,0 UV-I 4,4 C 8,7 C 4,3 km/h (1 Bft)
27.02.2014 11:45 7,3 C 13,4 C 8,3 C 8,7 C 8,7 C 1,4 C 82 % 82 % 37 % 1021,0 hPa 0,0 l/m 5,6 km/h (1 Bft) W-SW 247 0 min 0,0 UV-I 4,4 C 8,1 C 9,7 km/h (2 Bft)
27.02.2014 11:50 7,4 C 13,4 C 8,3 C 9,0 C 9,0 C 1,6 C 82 % 82 % 42 % 1020,5 hPa 0,0 l/m 4,7 km/h (1 Bft) W-SW 247 0 min 0,0 UV-I 4,5 C 8,7 C 5,3 km/h (1 Bft)
27.02.2014 11:55 7,5 C 13,4 C 8,7 C 9,8 C 9,8 C 2,3 C 82 % 82 % 61 % 1020,5 hPa 0,0 l/m 2,7 km/h (1 Bft) S 180 0 min 0,0 UV-I 4,6 C 9,8 C 1,9 km/h (1 Bft)
27.02.2014 12:00 7,7 C 13,4 C 8,9 C 10,2 C 10,2 C 2,5 C 82 % 82 % 66 % 1020,5 hPa 0,0 l/m 1,4 km/h (1 Bft) W 270 0 min 0,0 UV-I 4,8 C 10,2 C 3,9 km/h (1 Bft)
27.02.2014 12:05 7,9 C 13,4 C 8,9 C 10,4 C 10,4 C 2,5 C 81 % 81 % 66 % 1020,5 hPa 0,0 l/m 2,3 km/h (1 Bft) W-SW 247 0 min 0,0 UV-I 4,8 C 10,4 C 6,1 km/h (2 Bft)
27.02.2014 12:10 7,9 C 13,4 C 8,9 C 10,0 C 10,0 C 2,1 C 80 % 81 % 55 % 1020,2 hPa 0,0 l/m 5,1 km/h (1 Bft) NO 45 0 min 0,0 UV-I 4,7 C 9,7 C 4,3 km/h (1 Bft)
27.02.2014 12:15 7,9 C 13,5 C 8,9 C 10,0 C 10,0 C 2,1 C 81 % 80 % 55 % 1020,2 hPa 0,0 l/m 5,0 km/h (1 Bft) W 270 0 min 0,0 UV-I 4,8 C 9,8 C 6,3 km/h (2 Bft)
27.02.2014 12:20 7,9 C 13,5 C 8,9 C 10,2 C 10,2 C 2,3 C 81 % 80 % 61 % 1020,2 hPa 0,0 l/m 4,2 km/h (1 Bft) SW 225 0 min 0,0 UV-I 4,8 C 10,2 C 4,3 km/h (1 Bft)
27.02.2014 12:25 8,1 C 13,5 C 9,2 C 10,3 C 10,3 C 2,2 C 80 % 80 % 58 % 1020,2 hPa 0,0 l/m 4,5 km/h (1 Bft) SW 225 0 min 0,0 UV-I 4,9 C 10,3 C 4,5 km/h (1 Bft)
27.02.2014 12:30 8,1 C 13,5 C 9,3 C 10,4 C 10,4 C 2,3 C 80 % 80 % 61 % 1020,1 hPa 0,0 l/m 4,7 km/h (1 Bft) NW 315 0 min 0,0 UV-I 4,9 C 10,4 C 4,2 km/h (1 Bft)
27.02.2014 12:35 8,2 C 13,5 C 9,3 C 10,5 C 10,5 C 2,3 C 80 % 80 % 61 % 1020,1 hPa 0,0 l/m 3,5 km/h (1 Bft) SW 225 0 min 0,0 UV-I 5,0 C 10,5 C 10,8 km/h (2 Bft)
27.02.2014 12:40 8,3 C 13,5 C 9,5 C 10,8 C 10,8 C 2,5 C 80 % 79 % 66 % 1020,1 hPa 0,0 l/m 2,7 km/h (1 Bft) W 270 0 min 0,0 UV-I 5,1 C 10,8 C 2,9 km/h (1 Bft)
27.02.2014 12:45 8,5 C 13,5 C 9,7 C 11,2 C 11,2 C 2,7 C 80 % 79 % 71 % 1020,1 hPa 0,0 l/m 2,9 km/h (1 Bft) SW 225 0 min 0,0 UV-I 5,3 C 11,2 C 3,9 km/h (1 Bft)
27.02.2014 12:50 8,7 C 13,5 C 9,7 C 11,4 C 11,4 C 2,7 C 80 % 79 % 71 % 1020,1 hPa 0,0 l/m 2,7 km/h (1 Bft) W-SW 247 0 min 0,0 UV-I 5,4 C 11,4 C 2,3 km/h (1 Bft)
27.02.2014 12:55 8,6 C 13,6 C 9,8 C 11,4 C 11,4 C 2,8 C 79 % 78 % 74 % 1020,1 hPa 0,0 l/m 3,5 km/h (1 Bft) W-SW 247 0 min 0,0 UV-I 5,2 C 11,4 C 6,4 km/h (2 Bft)
27.02.2014 13:00 8,7 C 13,6 C 9,8 C 11,3 C 11,3 C 2,6 C 79 % 78 % 68 % 1020,1 hPa 0,0 l/m 4,5 km/h (1 Bft) W 270 0 min 0,0 UV-I 5,3 C 11,3 C 5,1 km/h (1 Bft)
27.02.2014 13:05 8,7 C 13,6 C 9,7 C 11,1 C 11,1 C 2,4 C 79 % 78 % 63 % 1020,1 hPa 0,0 l/m 4,3 km/h (1 Bft) W-SW 247 0 min 0,0 UV-I 5,3 C 11,1 C 2,7 km/h (1 Bft)
27.02.2014 13:10 8,7 C 13,6 C 9,6 C 10,9 C 10,9 C 2,2 C 79 % 78 % 58 % 1019,4 hPa 0,0 l/m 4,5 km/h (1 Bft) SW 225 0 min 0,0 UV-I 5,3 C 10,9 C 7,1 km/h (2 Bft)
27.02.2014 13:15 8,7 C 13,6 C 9,5 C 10,8 C 10,8 C 2,1 C 79 % 78 % 55 % 1019,4 hPa 0,0 l/m 3,4 km/h (1 Bft) W-SW 247 0 min 0,0 UV-I 5,3 C 10,8 C 10,9 km/h (2 Bft)
27.02.2014 13:20 8,8 C 13,6 C 9,7 C 10,9 C 10,9 C 2,1 C 79 % 78 % 55 % 1019,4 hPa 0,0 l/m 3,1 km/h (1 Bft) S-SO 157 0 min 0,0 UV-I 5,4 C 10,9 C 2,3 km/h (1 Bft)
27.02.2014 13:25 8,9 C 13,6 C 9,7 C 11,2 C 11,2 C 2,3 C 79 % 78 % 61 % 1019,4 hPa 0,0 l/m 3,4 km/h (1 Bft) SW 225 0 min 0,0 UV-I 5,5 C 11,2 C 0,0 km/h (0 Bft)
27.02.2014 13:30 8,9 C 13,6 C 9,7 C 11,3 C 11,3 C 2,4 C 79 % 78 % 63 % 1018,9 hPa 0,0 l/m 4,0 km/h (1 Bft) W-SW 247 0 min 0,0 UV-I 5,5 C 11,3 C 5,0 km/h (1 Bft)
27.02.2014 13:35 9,2 C 13,7 C 9,7 C 11,8 C 11,8 C 2,6 C 78 % 78 % 68 % 1018,9 hPa 0,0 l/m 3,7 km/h (1 Bft) W-SW 247 0 min 0,0 UV-I 5,6 C 11,8 C 12,2 km/h (2 Bft)
27.02.2014 13:40 9,2 C 13,7 C 9,8 C 11,8 C 11,8 C 2,6 C 78 % 78 % 68 % 1018,9 hPa 0,0 l/m 4,3 km/h (1 Bft) S-SO 157 0 min 0,0 UV-I 5,6 C 11,8 C 5,3 km/h (1 Bft)
27.02.2014 13:45 9,4 C 13,7 C 10,1 C 12,4 C 12,4 C 3,0 C 78 % 78 % 79 % 1018,9 hPa 0,0 l/m 5,0 km/h (1 Bft) S-SW 202 0 min 0,0 UV-I 5,8 C 12,4 C 3,4 km/h (1 Bft)
27.02.2014 13:50 9,7 C 13,7 C 10,3 C 13,0 C 13,0 C 3,3 C 76 % 78 % 87 % 1018,6 hPa 0,0 l/m 4,2 km/h (1 Bft) W-SW 247 5 min 0,0 UV-I 5,7 C 13,0 C 9,2 km/h (2 Bft)
27.02.2014 13:55 9,8 C 13,7 C 10,3 C 13,8 C 13,8 C 4,0 C 76 % 77 % 100 % 1018,6 hPa 0,0 l/m 3,1 km/h (1 Bft) NW 315 5 min 0,0 UV-I 5,8 C 13,8 C 2,7 km/h (1 Bft)
27.02.2014 14:00 10,1 C 13,7 C 10,1 C 14,1 C 14,1 C 4,0 C 76 % 77 % 100 % 1018,6 hPa 0,0 l/m 2,6 km/h (1 Bft) W-SW 247 5 min 0,0 UV-I 6,1 C 14,1 C 5,5 km/h (1 Bft)
27.02.2014 14:05 10,2 C 13,8 C 10,1 C 14,1 C 14,1 C 3,9 C 75 % 77 % 100 % 1018,6 hPa 0,0 l/m 3,2 km/h (1 Bft) S-SW 202 5 min 0,0 UV-I 6,0 C 14,1 C 7,7 km/h (2 Bft)
27.02.2014 14:10 10,3 C 13,8 C 10,3 C 14,2 C 14,2 C 3,9 C 74 % 77 % 100 % 1018,5 hPa 0,0 l/m 3,2 km/h (1 Bft) W 270 5 min 0,0 UV-I 5,9 C 14,2 C 1,8 km/h (1 Bft)
27.02.2014 14:15 10,4 C 13,8 C 10,3 C 14,1 C 14,1 C 3,7 C 73 % 76 % 97 % 1018,5 hPa 0,0 l/m 3,5 km/h (1 Bft) S 180 5 min 0,0 UV-I 5,8 C 14,1 C 7,9 km/h (2 Bft)
27.02.2014 14:20 10,6 C 13,8 C 10,3 C 14,1 C 14,1 C 3,5 C 73 % 75 % 92 % 1018,5 hPa 0,0 l/m 3,2 km/h (1 Bft) S 180 5 min 0,0 UV-I 6,0 C 14,1 C 4,8 km/h (1 Bft)
27.02.2014 14:25 10,7 C 13,8 C 10,4 C 14,0 C 14,0 C 3,3 C 71 % 75 % 87 % 1018,5 hPa 0,0 l/m 5,0 km/h (1 Bft) W-SW 247 5 min 0,0 UV-I 5,7 C 14,0 C 11,4 km/h (2 Bft)
27.02.2014 14:30 10,7 C 13,8 C 10,4 C 14,1 C 14,1 C 3,4 C 71 % 75 % 89 % 1017,6 hPa 0,0 l/m 5,1 km/h (1 Bft) S 180 5 min 0,0 UV-I 5,7 C 14,1 C 4,8 km/h (1 Bft)
27.02.2014 14:35 10,8 C 13,9 C 10,6 C 14,4 C 14,4 C 3,6 C 71 % 75 % 95 % 1017,6 hPa 0,0 l/m 3,9 km/h (1 Bft) W-SW 247 5 min 0,0 UV-I 5,8 C 14,4 C 2,3 km/h (1 Bft)
27.02.2014 14:40 10,9 C 13,9 C 10,7 C 14,7 C 14,7 C 3,8 C 71 % 75 % 100 % 1017,6 hPa 0,0 l/m 3,2 km/h (1 Bft) O-SO 112 5 min 0,0 UV-I 5,9 C 14,7 C 2,9 km/h (1 Bft)
27.02.2014 14:45 11,0 C 13,9 C 10,4 C 13,9 C 13,9 C 2,9 C 70 % 74 % 76 % 1017,6 hPa 0,0 l/m 2,9 km/h (1 Bft) S-SW 202 0 min 0,0 UV-I 5,7 C 13,9 C 5,3 km/h (1 Bft)
27.02.2014 14:50 10,9 C 13,9 C 10,4 C 13,6 C 13,6 C 2,7 C 70 % 74 % 71 % 1017,7 hPa 0,0 l/m 3,5 km/h (1 Bft) W-SW 247 0 min 0,0 UV-I 5,6 C 13,6 C 6,3 km/h (2 Bft)
27.02.2014 14:55 10,9 C 13,9 C 10,5 C 13,4 C 13,4 C 2,5 C 69 % 74 % 66 % 1017,7 hPa 0,0 l/m 5,1 km/h (1 Bft) SW 225 0 min 0,0 UV-I 5,4 C 13,4 C 6,8 km/h (2 Bft)
27.02.2014 15:00 11,1 C 13,9 C 10,6 C 13,6 C 13,6 C 2,5 C 69 % 74 % 66 % 1017,7 hPa 0,0 l/m 5,1 km/h (1 Bft) W-SW 247 0 min 0,0 UV-I 5,6 C 13,6 C 9,0 km/h (2 Bft)
27.02.2014 15:05 11,0 C 13,9 C 10,5 C 13,4 C 13,4 C 2,4 C 69 % 74 % 63 % 1017,7 hPa 0,0 l/m 4,3 km/h (1 Bft) SW 225 0 min 0,0 UV-I 5,5 C 13,4 C 2,1 km/h (1 Bft)
27.02.2014 15:10 11,1 C 14,0 C 10,5 C 13,1 C 13,1 C 2,0 C 68 % 74 % 53 % 1017,3 hPa 0,0 l/m 4,3 km/h (1 Bft) W-SW 247 0 min 0,0 UV-I 5,4 C 13,1 C 7,6 km/h (2 Bft)
27.02.2014 15:15 11,1 C 14,0 C 10,5 C 12,7 C 12,7 C 1,6 C 68 % 74 % 42 % 1017,3 hPa 0,0 l/m 5,0 km/h (1 Bft) SW 225 0 min 0,0 UV-I 5,4 C 12,7 C 7,1 km/h (2 Bft)
27.02.2014 15:20 11,0 C 14,0 C 10,5 C 12,4 C 12,4 C 1,4 C 68 % 73 % 37 % 1017,3 hPa 0,0 l/m 6,0 km/h (2 Bft) W 270 0 min 0,0 UV-I 5,3 C 12,4 C 8,4 km/h (2 Bft)
27.02.2014 15:25 11,1 C 14,0 C 10,5 C 12,6 C 12,6 C 1,5 C 69 % 74 % 39 % 1017,3 hPa 0,0 l/m 4,7 km/h (1 Bft) W-SW 247 0 min 0,0 UV-I 5,6 C 12,6 C 4,8 km/h (1 Bft)
27.02.2014 15:30 11,1 C 14,0 C 10,2 C 12,3 C 12,3 C 1,2 C 68 % 74 % 32 % 1017,3 hPa 0,0 l/m 4,8 km/h (1 Bft) SW 225 0 min 0,0 UV-I 5,4 C 12,3 C 8,4 km/h (2 Bft)
27.02.2014 15:35 10,9 C 14,0 C 10,1 C 11,8 C 11,8 C 0,9 C 68 % 74 % 24 % 1017,3 hPa 0,0 l/m 5,3 km/h (1 Bft) W-SW 247 0 min 0,0 UV-I 5,2 C 11,8 C 6,3 km/h (2 Bft)
27.02.2014 15:40 11,1 C 14,0 C 10,1 C 12,2 C 12,2 C 1,1 C 69 % 74 % 29 % 1017,3 hPa 0,0 l/m 4,5 km/h (1 Bft) W-SW 247 0 min 0,0 UV-I 5,6 C 12,2 C 4,8 km/h (1 Bft)
27.02.2014 15:45 11,1 C 14,1 C 10,3 C 12,8 C 12,8 C 1,7 C 67 % 74 % 45 % 1017,3 hPa 0,0 l/m 5,5 km/h (1 Bft) W-SW 247 0 min 0,0 UV-I 5,2 C 12,8 C 12,7 km/h (3 Bft)
27.02.2014 15:50 11,1 C 14,1 C 10,3 C 12,7 C 12,7 C 1,6 C 68 % 74 % 42 % 1017,2 hPa 0,0 l/m 5,8 km/h (2 Bft) O-SO 112 0 min 0,0 UV-I 5,4 C 12,7 C 6,8 km/h (2 Bft)
27.02.2014 15:55 11,0 C 14,1 C 10,3 C 12,5 C 12,5 C 1,5 C 68 % 73 % 39 % 1017,2 hPa 0,0 l/m 4,0 km/h (1 Bft) SW 225 0 min 0,0 UV-I 5,3 C 12,5 C 9,5 km/h (2 Bft)
27.02.2014 16:00 10,9 C 14,1 C 10,3 C 12,5 C 12,5 C 1,6 C 68 % 73 % 42 % 1017,2 hPa 0,0 l/m 5,3 km/h (1 Bft) W-SW 247 0 min 0,0 UV-I 5,2 C 12,5 C 8,4 km/h (2 Bft)
27.02.2014 16:05 10,8 C 14,1 C 10,3 C 11,8 C 11,8 C 1,0 C 67 % 73 % 26 % 1017,2 hPa 0,0 l/m 7,1 km/h (2 Bft) S-SW 202 0 min 0,0 UV-I 4,9 C 11,8 C 10,3 km/h (2 Bft)
27.02.2014 16:10 10,7 C 14,1 C 10,0 C 11,1 C 11,1 C 0,4 C 67 % 73 % 11 % 1017,4 hPa 0,0 l/m 7,6 km/h (2 Bft) W-SW 247 0 min 0,0 UV-I 4,8 C 11,1 C 13,8 km/h (3 Bft)
27.02.2014 16:15 10,5 C 14,1 C 9,8 C 10,5 C 10,5 C 0,0 C 67 % 73 % 0 % 1017,4 hPa 0,0 l/m 7,1 km/h (2 Bft) NW 315 0 min 0,0 UV-I 4,6 C 10,5 C 14,2 km/h (3 Bft)
27.02.2014 16:20 10,4 C 14,1 C 9,9 C 10,6 C 10,6 C 0,2 C 67 % 73 % 5 % 1017,4 hPa 0,0 l/m 6,0 km/h (2 Bft) W-SW 247 0 min 0,0 UV-I 4,5 C 10,6 C 7,9 km/h (2 Bft)
27.02.2014 16:25 10,4 C 14,2 C 9,7 C 11,1 C 11,1 C 0,7 C 67 % 73 % 18 % 1017,4 hPa 0,0 l/m 5,0 km/h (1 Bft) W-SW 247 0 min 0,0 UV-I 4,5 C 11,1 C 8,9 km/h (2 Bft)
27.02.2014 16:30 10,4 C 14,2 C 9,7 C 11,2 C 11,2 C 0,8 C 67 % 73 % 21 % 1016,8 hPa 0,0 l/m 5,3 km/h (1 Bft) SW 225 0 min 0,0 UV-I 4,5 C 11,2 C 9,5 km/h (2 Bft)
27.02.2014 16:35 10,4 C 14,2 C 9,7 C 10,8 C 10,8 C 0,4 C 67 % 73 % 11 % 1016,8 hPa 0,0 l/m 6,1 km/h (2 Bft) SW 225 0 min 0,0 UV-I 4,5 C 10,8 C 6,9 km/h (2 Bft)
27.02.2014 16:40 10,5 C 14,2 C 9,9 C 11,3 C 11,3 C 0,8 C 67 % 73 % 21 % 1016,8 hPa 0,0 l/m 6,0 km/h (2 Bft) W-SW 247 0 min 0,0 UV-I 4,6 C 11,3 C 12,7 km/h (3 Bft)
27.02.2014 16:45 10,4 C 14,2 C 9,7 C 11,7 C 11,7 C 1,3 C 67 % 73 % 34 % 1016,8 hPa 0,0 l/m 5,1 km/h (1 Bft) W-SW 247 0 min 0,0 UV-I 4,5 C 11,7 C 8,4 km/h (2 Bft)
27.02.2014 16:50 10,3 C 14,2 C 9,6 C 11,3 C 11,3 C 1,0 C 66 % 72 % 26 % 1016,8 hPa 0,0 l/m 5,6 km/h (1 Bft) SW 225 0 min 0,0 UV-I 4,2 C 11,3 C 6,6 km/h (2 Bft)
27.02.2014 16:55 10,3 C 14,2 C 9,4 C 10,9 C 10,9 C 0,6 C 66 % 72 % 16 % 1016,8 hPa 0,0 l/m 5,6 km/h (1 Bft) SW 225 0 min 0,0 UV-I 4,2 C 10,9 C 4,3 km/h (1 Bft)
27.02.2014 17:00 10,1 C 14,2 C 9,3 C 10,7 C 10,7 C 0,6 C 67 % 73 % 16 % 1016,8 hPa 0,0 l/m 5,8 km/h (2 Bft) W-SW 247 0 min 0,0 UV-I 4,3 C 10,7 C 6,3 km/h (2 Bft)
27.02.2014 17:05 10,0 C 14,2 C 9,1 C 10,8 C 10,8 C 0,8 C 67 % 73 % 21 % 1016,8 hPa 0,0 l/m 4,5 km/h (1 Bft) W-SW 247 0 min 0,0 UV-I 4,2 C 10,8 C 5,6 km/h (1 Bft)
27.02.2014 17:10 9,9 C 14,2 C 9,1 C 10,4 C 10,4 C 0,5 C 68 % 73 % 13 % 1016,3 hPa 0,0 l/m 3,7 km/h (1 Bft) S 180 0 min 0,0 UV-I 4,3 C 10,4 C 2,3 km/h (1 Bft)
27.02.2014 17:15 9,7 C 14,2 C 8,7 C 10,0 C 10,0 C 0,3 C 68 % 74 % 8 % 1016,3 hPa 0,0 l/m 2,7 km/h (1 Bft) W-SW 247 0 min 0,0 UV-I 4,1 C 10,0 C 4,8 km/h (1 Bft)
27.02.2014 17:20 9,6 C 14,3 C 8,5 C 9,6 C 9,6 C 0,0 C 68 % 74 % 0 % 1016,3 hPa 0,0 l/m 3,2 km/h (1 Bft) W-SW 247 0 min 0,0 UV-I 4,0 C 9,6 C 4,2 km/h (1 Bft)
27.02.2014 17:25 9,4 C 14,3 C 8,2 C 9,2 C 8,8 C 0,0 C 68 % 75 % 0 % 1016,3 hPa 0,0 l/m 4,0 km/h (1 Bft) SW 225 0 min 0,0 UV-I 3,8 C 8,8 C 8,2 km/h (2 Bft)
27.02.2014 17:30 9,3 C 14,3 C 8,1 C 9,0 C 8,4 C 0,0 C 69 % 75 % 0 % 1016,6 hPa 0,0 l/m 4,2 km/h (1 Bft) S-SW 202 0 min 0,0 UV-I 3,9 C 8,4 C 5,5 km/h (1 Bft)
27.02.2014 17:35 9,1 C 14,3 C 8,0 C 8,7 C 7,9 C 0,0 C 70 % 76 % 0 % 1016,6 hPa 0,0 l/m 4,5 km/h (1 Bft) SW 225 0 min 0,0 UV-I 3,9 C 7,9 C 5,5 km/h (1 Bft)
27.02.2014 17:40 8,9 C 14,3 C 7,9 C 8,5 C 7,8 C 0,0 C 70 % 76 % 0 % 1016,6 hPa 0,0 l/m 4,0 km/h (1 Bft) O-NO 67 0 min 0,0 UV-I 3,7 C 7,8 C 3,7 km/h (1 Bft)
27.02.2014 17:45 8,8 C 14,3 C 7,6 C 8,5 C 7,8 C 0,0 C 71 % 77 % 0 % 1016,6 hPa 0,0 l/m 3,2 km/h (1 Bft) SW 225 0 min 0,0 UV-I 3,8 C 7,8 C 0,0 km/h (0 Bft)
27.02.2014 17:50 8,6 C 14,3 C 7,3 C 8,2 C 7,5 C 0,0 C 71 % 77 % 0 % 1016,6 hPa 0,0 l/m 1,8 km/h (1 Bft) NW 315 0 min 0,0 UV-I 3,6 C 7,5 C 0,0 km/h (0 Bft)
27.02.2014 17:55 8,5 C 14,3 C 6,9 C 8,0 C 7,1 C 0,0 C 72 % 78 % 0 % 1016,6 hPa 0,0 l/m 0,3 km/h (0 Bft) SW 225 0 min 0,0 UV-I 3,7 C 7,1 C 2,4 km/h (1 Bft)
27.02.2014 18:00 8,3 C 14,3 C 6,9 C 7,8 C 6,9 C 0,0 C 72 % 78 % 0 % 1016,6 hPa 0,0 l/m 0,3 km/h (0 Bft) O-NO 67 0 min 0,0 UV-I 3,6 C 6,9 C 0,0 km/h (0 Bft)
27.02.2014 18:05 8,1 C 14,4 C 6,7 C 7,7 C 6,8 C 0,0 C 73 % 79 % 0 % 1016,6 hPa 0,0 l/m 0,2 km/h (0 Bft) SW 225 0 min 0,0 UV-I 3,6 C 6,8 C 1,9 km/h (1 Bft)
27.02.2014 18:10 8,1 C 14,4 C 6,5 C 7,6 C 6,7 C 0,0 C 74 % 79 % 0 % 1017,1 hPa 0,0 l/m 0,2 km/h (0 Bft) S 180 0 min 0,0 UV-I 3,8 C 6,7 C 0,0 km/h (0 Bft)
27.02.2014 18:15 7,8 C 14,4 C 6,4 C 7,4 C 6,6 C 0,0 C 74 % 79 % 0 % 1017,1 hPa 0,0 l/m 0,2 km/h (0 Bft) S-SO 157 0 min 0,0 UV-I 3,5 C 6,6 C 0,0 km/h (0 Bft)
27.02.2014 18:20 7,7 C 14,4 C 6,1 C 7,3 C 6,4 C 0,0 C 74 % 80 % 0 % 1017,1 hPa 0,0 l/m 0,0 km/h (0 Bft) SO 135 0 min 0,0 UV-I 3,4 C 6,4 C 0,0 km/h (0 Bft)
27.02.2014 18:25 7,5 C 14,4 C 6,0 C 7,0 C 6,1 C 0,0 C 75 % 80 % 0 % 1017,1 hPa 0,0 l/m 0,0 km/h (0 Bft) S 180 0 min 0,0 UV-I 3,4 C 6,1 C 1,6 km/h (1 Bft)
27.02.2014 18:30 7,5 C 14,4 C 6,0 C 7,1 C 6,2 C 0,0 C 76 % 81 % 0 % 1016,8 hPa 0,0 l/m 0,3 km/h (0 Bft) S 180 0 min 0,0 UV-I 3,5 C 6,2 C 2,3 km/h (1 Bft)
27.02.2014 18:35 7,3 C 14,4 C 6,0 C 7,0 C 6,3 C 0,0 C 76 % 82 % 0 % 1016,8 hPa 0,0 l/m 0,6 km/h (0 Bft) W-SW 247 0 min 0,0 UV-I 3,4 C 6,3 C 0,0 km/h (0 Bft)
27.02.2014 18:40 7,2 C 14,4 C 6,1 C 6,8 C 6,1 C 0,0 C 76 % 82 % 0 % 1016,8 hPa 0,0 l/m 0,5 km/h (0 Bft) SW 225 0 min 0,0 UV-I 3,3 C 6,1 C 2,3 km/h (1 Bft)
27.02.2014 18:45 7,1 C 14,4 C 6,0 C 6,7 C 5,8 C 0,0 C 76 % 82 % 0 % 1016,8 hPa 0,0 l/m 0,0 km/h (0 Bft) S-SO 157 0 min 0,0 UV-I 3,2 C 5,8 C 0,0 km/h (0 Bft)
27.02.2014 18:50 7,1 C 14,4 C 5,9 C 6,7 C 5,8 C 0,0 C 76 % 81 % 0 % 1016,4 hPa 0,0 l/m 0,5 km/h (0 Bft) SW 225 0 min 0,0 UV-I 3,2 C 5,8 C 4,2 km/h (1 Bft)
27.02.2014 18:55 7,1 C 14,4 C 6,0 C 6,7 C 5,8 C 0,0 C 77 % 82 % 0 % 1016,4 hPa 0,0 l/m 1,6 km/h (1 Bft) S-SO 157 0 min 0,0 UV-I 3,3 C 5,8 C 3,5 km/h (1 Bft)
27.02.2014 19:00 7,1 C 14,4 C 6,0 C 6,7 C 5,9 C 0,0 C 76 % 82 % 0 % 1016,4 hPa 0,0 l/m 2,4 km/h (1 Bft) S-SO 157 0 min 0,0 UV-I 3,2 C 5,9 C 2,6 km/h (1 Bft)
27.02.2014 19:05 7,1 C 14,4 C 6,0 C 6,7 C 6,0 C 0,0 C 75 % 82 % 0 % 1016,4 hPa 0,0 l/m 2,7 km/h (1 Bft) SW 225 0 min 0,0 UV-I 3,0 C 6,0 C 2,1 km/h (1 Bft)
27.02.2014 19:10 7,0 C 14,4 C 6,0 C 6,7 C 6,1 C 0,0 C 75 % 82 % 0 % 1015,9 hPa 0,0 l/m 3,2 km/h (1 Bft) S 180 0 min 0,0 UV-I 2,9 C 6,1 C 3,2 km/h (1 Bft)
27.02.2014 19:15 7,1 C 14,4 C 6,2 C 6,8 C 6,3 C 0,0 C 75 % 81 % 0 % 1015,9 hPa 0,0 l/m 3,1 km/h (1 Bft) O-SO 112 0 min 0,0 UV-I 3,0 C 6,3 C 0,0 km/h (0 Bft)
27.02.2014 19:20 7,1 C 14,4 C 6,2 C 6,8 C 6,3 C 0,0 C 75 % 80 % 0 % 1015,9 hPa 0,0 l/m 1,9 km/h (1 Bft) W 270 0 min 0,0 UV-I 3,0 C 6,3 C 2,4 km/h (1 Bft)
27.02.2014 19:25 7,1 C 14,4 C 6,3 C 6,9 C 6,4 C 0,0 C 75 % 80 % 0 % 1015,9 hPa 0,0 l/m 0,5 km/h (0 Bft) S-SW 202 0 min 0,0 UV-I 3,0 C 6,4 C 1,8 km/h (1 Bft)
27.02.2014 19:30 7,0 C 14,4 C 6,3 C 6,8 C 6,4 C 0,0 C 75 % 80 % 0 % 1016,6 hPa 0,0 l/m 1,0 km/h (0 Bft) S-SW 202 0 min 0,0 UV-I 2,9 C 6,4 C 3,1 km/h (1 Bft)
27.02.2014 19:35 6,9 C 14,4 C 6,3 C 6,7 C 6,3 C 0,0 C 74 % 79 % 0 % 1016,6 hPa 0,0 l/m 2,3 km/h (1 Bft) W-SW 247 0 min 0,0 UV-I 2,6 C 6,3 C 4,2 km/h (1 Bft)
27.02.2014 19:40 6,8 C 14,4 C 6,0 C 6,6 C 6,1 C 0,0 C 74 % 79 % 0 % 1016,6 hPa 0,0 l/m 2,7 km/h (1 Bft) S 180 0 min 0,0 UV-I 2,5 C 6,1 C 3,9 km/h (1 Bft)
27.02.2014 19:45 6,8 C 14,4 C 5,9 C 6,5 C 5,8 C 0,0 C 74 % 80 % 0 % 1016,6 hPa 0,0 l/m 2,6 km/h (1 Bft) S-SO 157 0 min 0,0 UV-I 2,5 C 5,8 C 2,7 km/h (1 Bft)
27.02.2014 19:50 6,7 C 14,4 C 5,7 C 6,3 C 5,5 C 0,0 C 74 % 79 % 0 % 1016,2 hPa 0,0 l/m 1,4 km/h (1 Bft) W-SW 247 0 min 0,0 UV-I 2,4 C 5,5 C 0,0 km/h (0 Bft)
27.02.2014 19:55 6,5 C 14,4 C 5,2 C 6,0 C 5,1 C 0,0 C 74 % 79 % 0 % 1016,2 hPa 0,0 l/m 0,2 km/h (0 Bft) W-SW 247 0 min 0,0 UV-I 2,2 C 5,1 C 0,0 km/h (0 Bft)
27.02.2014 20:00 6,4 C 14,4 C 5,1 C 5,8 C 4,6 C 0,0 C 74 % 80 % 0 % 1016,2 hPa 0,0 l/m 0,0 km/h (0 Bft) W-NW 292 0 min 0,0 UV-I 2,1 C 4,6 C 0,0 km/h (0 Bft)
27.02.2014 20:05 6,2 C 14,4 C 4,9 C 5,6 C 4,4 C 0,0 C 75 % 80 % 0 % 1016,2 hPa 0,0 l/m 0,2 km/h (0 Bft) NW 315 0 min 0,0 UV-I 2,1 C 4,4 C 1,6 km/h (1 Bft)
27.02.2014 20:10 6,0 C 14,4 C 4,8 C 5,4 C 4,3 C 0,0 C 75 % 80 % 0 % 1015,9 hPa 0,0 l/m 0,2 km/h (0 Bft) SW 225 0 min 0,0 UV-I 1,9 C 4,3 C 2,1 km/h (1 Bft)
27.02.2014 20:15 5,9 C 14,5 C 4,7 C 5,4 C 4,3 C 0,0 C 75 % 81 % 0 % 1015,9 hPa 0,0 l/m 0,3 km/h (0 Bft) W-NW 292 0 min 0,0 UV-I 1,8 C 4,3 C 0,0 km/h (0 Bft)
27.02.2014 20:20 5,9 C 14,5 C 4,5 C 5,4 C 4,3 C 0,0 C 75 % 80 % 0 % 1015,9 hPa 0,0 l/m 0,3 km/h (0 Bft) O-SO 112 0 min 0,0 UV-I 1,8 C 4,3 C 0,0 km/h (0 Bft)
27.02.2014 20:25 5,6 C 14,5 C 4,4 C 5,1 C 4,1 C 0,0 C 76 % 81 % 0 % 1015,9 hPa 0,0 l/m 0,0 km/h (0 Bft) O-SO 112 0 min 0,0 UV-I 1,7 C 4,1 C 0,0 km/h (0 Bft)
27.02.2014 20:30 5,5 C 14,5 C 4,4 C 5,0 C 4,1 C 0,0 C 76 % 82 % 0 % 1015,9 hPa 0,0 l/m 0,0 km/h (0 Bft) O-SO 112 0 min 0,0 UV-I 1,6 C 4,1 C 0,0 km/h (0 Bft)
27.02.2014 20:35 5,3 C 14,5 C 4,2 C 5,0 C 4,3 C 0,0 C 76 % 82 % 0 % 1015,9 hPa 0,0 l/m 0,0 km/h (0 Bft) O-NO 67 0 min 0,0 UV-I 1,4 C 4,3 C 0,0 km/h (0 Bft)
27.02.2014 20:40 5,3 C 14,5 C 4,3 C 5,0 C 4,4 C 0,0 C 77 % 82 % 0 % 1015,9 hPa 0,0 l/m 0,0 km/h (0 Bft) O-NO 67 0 min 0,0 UV-I 1,6 C 4,4 C 0,0 km/h (0 Bft)
27.02.2014 20:45 5,2 C 14,5 C 4,3 C 5,0 C 4,5 C 0,0 C 77 % 82 % 0 % 1015,9 hPa 0,0 l/m 0,0 km/h (0 Bft) O-NO 67 0 min 0,0 UV-I 1,5 C 4,5 C 0,0 km/h (0 Bft)
27.02.2014 20:50 5,2 C 14,5 C 4,3 C 5,0 C 4,6 C 0,0 C 77 % 83 % 0 % 1015,8 hPa 0,0 l/m 0,0 km/h (0 Bft) O-NO 67 0 min 0,0 UV-I 1,5 C 4,6 C 0,0 km/h (0 Bft)
27.02.2014 20:55 5,2 C 14,5 C 4,3 C 5,0 C 4,6 C 0,0 C 77 % 83 % 0 % 1015,8 hPa 0,0 l/m 0,0 km/h (0 Bft) O-NO 67 0 min 0,0 UV-I 1,5 C 4,6 C 0,0 km/h (0 Bft)
27.02.2014 21:00 5,2 C 14,5 C 4,4 C 5,0 C 4,5 C 0,0 C 77 % 83 % 0 % 1015,8 hPa 0,0 l/m 0,0 km/h (0 Bft) O-NO 67 0 min 0,0 UV-I 1,5 C 4,5 C 0,0 km/h (0 Bft)
27.02.2014 21:05 5,1 C 14,5 C 4,4 C 4,9 C 4,4 C 0,0 C 77 % 83 % 0 % 1015,8 hPa 0,0 l/m 0,0 km/h (0 Bft) O-NO 67 0 min 0,0 UV-I 1,4 C 4,4 C 0,0 km/h (0 Bft)
27.02.2014 21:10 5,1 C 14,5 C 4,3 C 4,8 C 4,3 C 0,0 C 78 % 83 % 0 % 1015,7 hPa 0,0 l/m 0,0 km/h (0 Bft) NW 315 0 min 0,0 UV-I 1,6 C 4,3 C 0,0 km/h (0 Bft)
27.02.2014 21:15 5,1 C 14,5 C 4,3 C 4,8 C 4,1 C 0,0 C 78 % 83 % 0 % 1015,7 hPa 0,0 l/m 0,0 km/h (0 Bft) NW 315 0 min 0,0 UV-I 1,6 C 4,1 C 0,0 km/h (0 Bft)
27.02.2014 21:20 4,9 C 14,5 C 3,9 C 4,6 C 3,9 C 0,0 C 78 % 82 % 0 % 1015,7 hPa 0,0 l/m 0,0 km/h (0 Bft) NW 315 0 min 0,0 UV-I 1,4 C 3,9 C 0,0 km/h (0 Bft)
27.02.2014 21:25 4,7 C 14,5 C 3,6 C 4,4 C 3,7 C 0,0 C 78 % 83 % 0 % 1015,7 hPa 0,0 l/m 0,6 km/h (0 Bft) O-NO 67 0 min 0,0 UV-I 1,2 C 3,7 C 0,0 km/h (0 Bft)
27.02.2014 21:30 4,7 C 14,5 C 3,6 C 4,3 C 3,6 C 0,0 C 79 % 83 % 0 % 1015,2 hPa 0,0 l/m 0,6 km/h (0 Bft) O-NO 67 0 min 0,0 UV-I 1,4 C 3,6 C 0,0 km/h (0 Bft)
27.02.2014 21:35 4,6 C 14,5 C 3,5 C 4,2 C 3,3 C 0,0 C 79 % 83 % 0 % 1015,2 hPa 0,0 l/m 0,2 km/h (0 Bft) W-NW 292 0 min 0,0 UV-I 1,3 C 3,3 C 0,0 km/h (0 Bft)
27.02.2014 21:40 4,4 C 14,5 C 3,5 C 3,9 C 3,0 C 0,0 C 79 % 83 % 0 % 1015,2 hPa 0,0 l/m 0,0 km/h (0 Bft) O-NO 67 0 min 0,0 UV-I 1,1 C 3,0 C 0,0 km/h (0 Bft)
27.02.2014 21:45 4,3 C 14,5 C 3,2 C 3,8 C 2,7 C 0,0 C 79 % 83 % 0 % 1015,2 hPa 0,0 l/m 0,0 km/h (0 Bft) W-SW 247 0 min 0,0 UV-I 1,0 C 2,7 C 0,0 km/h (0 Bft)
27.02.2014 21:50 4,3 C 14,5 C 3,3 C 3,7 C 2,6 C 0,0 C 80 % 84 % 0 % 1015,2 hPa 0,0 l/m 0,3 km/h (0 Bft) W-NW 292 0 min 0,0 UV-I 1,2 C 2,6 C 2,7 km/h (1 Bft)
27.02.2014 21:55 4,1 C 14,5 C 3,1 C 3,6 C 2,5 C 0,0 C 80 % 84 % 0 % 1015,2 hPa 0,0 l/m 0,6 km/h (0 Bft) W 270 0 min 0,0 UV-I 1,0 C 2,5 C 0,0 km/h (0 Bft)
27.02.2014 22:00 4,1 C 14,5 C 2,8 C 3,5 C 2,3 C 0,0 C 80 % 84 % 0 % 1015,2 hPa 0,0 l/m 0,5 km/h (0 Bft) NW 315 0 min 0,0 UV-I 1,0 C 2,3 C 0,0 km/h (0 Bft)
27.02.2014 22:05 3,9 C 14,5 C 2,7 C 3,3 C 2,1 C 0,0 C 80 % 84 % 0 % 1015,2 hPa 0,0 l/m 0,0 km/h (0 Bft) NW 315 0 min 0,0 UV-I 0,8 C 2,1 C 0,0 km/h (0 Bft)
27.02.2014 22:10 3,7 C 14,6 C 2,5 C 3,1 C 2,0 C 0,0 C 80 % 84 % 0 % 1015,1 hPa 0,0 l/m 0,0 km/h (0 Bft) O-SO 112 0 min 0,0 UV-I 0,6 C 2,0 C 0,0 km/h (0 Bft)
27.02.2014 22:15 3,6 C 14,6 C 2,4 C 3,0 C 1,8 C 0,0 C 81 % 84 % 0 % 1015,1 hPa 0,0 l/m 0,0 km/h (0 Bft) O-SO 112 0 min 0,0 UV-I 0,7 C 1,8 C 0,0 km/h (0 Bft)
27.02.2014 22:20 3,5 C 14,6 C 2,3 C 2,9 C 1,7 C 0,0 C 81 % 84 % 0 % 1015,1 hPa 0,0 l/m 0,2 km/h (0 Bft) O-NO 67 0 min 0,0 UV-I 0,6 C 1,7 C 1,6 km/h (1 Bft)
27.02.2014 22:25 3,3 C 14,6 C 2,0 C 2,8 C 1,7 C 0,0 C 81 % 84 % 0 % 1015,1 hPa 0,0 l/m 0,2 km/h (0 Bft) O 90 0 min 0,0 UV-I 0,4 C 1,7 C 0,0 km/h (0 Bft)
27.02.2014 22:30 3,2 C 14,6 C 2,0 C 2,6 C 1,5 C 0,0 C 81 % 85 % 0 % 1015,1 hPa 0,0 l/m 0,0 km/h (0 Bft) O-SO 112 0 min 0,0 UV-I 0,3 C 1,5 C 0,0 km/h (0 Bft)
27.02.2014 22:35 3,1 C 14,5 C 2,1 C 2,5 C 1,4 C 0,0 C 82 % 85 % 0 % 1015,1 hPa 0,0 l/m 0,0 km/h (0 Bft) W 270 0 min 0,0 UV-I 0,3 C 1,4 C 0,0 km/h (0 Bft)
27.02.2014 22:40 3,0 C 14,5 C 2,1 C 2,5 C 1,4 C 0,0 C 82 % 85 % 0 % 1015,1 hPa 0,0 l/m 0,0 km/h (0 Bft) W 270 0 min 0,0 UV-I 0,2 C 1,4 C 0,0 km/h (0 Bft)
27.02.2014 22:45 2,9 C 14,5 C 2,3 C 2,4 C 1,5 C 0,0 C 82 % 85 % 0 % 1015,1 hPa 0,0 l/m 0,3 km/h (0 Bft) W-SW 247 0 min 0,0 UV-I 0,1 C 1,5 C 0,0 km/h (0 Bft)
27.02.2014 22:50 2,9 C 14,5 C 2,4 C 2,5 C 1,8 C 0,0 C 83 % 85 % 0 % 1015,1 hPa 0,0 l/m 0,5 km/h (0 Bft) SW 225 0 min 0,0 UV-I 0,3 C 1,8 C 0,0 km/h (0 Bft)
27.02.2014 22:55 2,9 C 14,5 C 2,7 C 2,7 C 2,2 C 0,0 C 83 % 86 % 0 % 1015,1 hPa 0,0 l/m 0,5 km/h (0 Bft) O 90 0 min 0,0 UV-I 0,3 C 2,2 C 0,0 km/h (0 Bft)
27.02.2014 23:00 2,8 C 14,5 C 2,7 C 2,6 C 2,2 C 0,0 C 83 % 85 % 0 % 1015,1 hPa 0,0 l/m 0,3 km/h (0 Bft) O-NO 67 0 min 0,0 UV-I 0,2 C 2,2 C 0,0 km/h (0 Bft)
27.02.2014 23:05 2,8 C 14,5 C 2,7 C 2,6 C 2,2 C 0,0 C 83 % 85 % 0 % 1015,1 hPa 0,0 l/m 0,6 km/h (0 Bft) W-SW 247 0 min 0,0 UV-I 0,2 C 2,2 C 0,0 km/h (0 Bft)
27.02.2014 23:10 2,9 C 14,5 C 2,6 C 2,7 C 2,2 C 0,0 C 83 % 85 % 0 % 1015,0 hPa 0,0 l/m 0,6 km/h (0 Bft) O-NO 67 0 min 0,0 UV-I 0,3 C 2,2 C 0,0 km/h (0 Bft)
27.02.2014 23:15 2,8 C 14,5 C 2,5 C 2,6 C 2,2 C 0,0 C 84 % 85 % 0 % 1015,0 hPa 0,0 l/m 0,0 km/h (0 Bft) O-NO 67 0 min 0,0 UV-I 0,4 C 2,2 C 0,0 km/h (0 Bft)
27.02.2014 23:20 2,7 C 14,5 C 2,5 C 2,6 C 2,3 C 0,0 C 84 % 85 % 0 % 1015,0 hPa 0,0 l/m 0,0 km/h (0 Bft) O-NO 67 0 min 0,0 UV-I 0,3 C 2,3 C 0,0 km/h (0 Bft)
27.02.2014 23:25 2,8 C 14,4 C 2,7 C 2,7 C 2,5 C 0,0 C 84 % 86 % 0 % 1015,0 hPa 0,0 l/m 0,0 km/h (0 Bft) O-NO 67 0 min 0,0 UV-I 0,4 C 2,5 C 0,0 km/h (0 Bft)
27.02.2014 23:30 2,8 C 14,4 C 2,7 C 2,7 C 2,6 C 0,0 C 84 % 86 % 0 % 1014,6 hPa 0,0 l/m 0,0 km/h (0 Bft) W-SW 247 0 min 0,0 UV-I 0,4 C 2,6 C 0,0 km/h (0 Bft)
27.02.2014 23:35 2,8 C 14,4 C 2,8 C 2,8 C 2,8 C 0,0 C 84 % 86 % 0 % 1014,6 hPa 0,0 l/m 0,0 km/h (0 Bft) W-SW 247 0 min 0,0 UV-I 0,4 C 2,8 C 0,0 km/h (0 Bft)
27.02.2014 23:40 2,8 C 14,3 C 3,0 C 3,0 C 3,0 C 0,2 C 84 % 86 % 0 % 1014,6 hPa 0,0 l/m 0,0 km/h (0 Bft) O-SO 112 0 min 0,0 UV-I 0,4 C 3,0 C 0,0 km/h (0 Bft)
27.02.2014 23:45 3,0 C 14,4 C 3,1 C 3,3 C 3,3 C 0,3 C 84 % 86 % 0 % 1014,6 hPa 0,0 l/m 0,2 km/h (0 Bft) O 90 0 min 0,0 UV-I 0,6 C 3,3 C 0,0 km/h (0 Bft)
27.02.2014 23:50 3,1 C 14,4 C 2,9 C 3,2 C 3,2 C 0,1 C 85 % 86 % 0 % 1014,6 hPa 0,0 l/m 0,2 km/h (0 Bft) O-NO 67 0 min 0,0 UV-I 0,8 C 3,2 C 1,8 km/h (1 Bft)
27.02.2014 23:55 3,1 C 14,4 C 2,7 C 3,0 C 2,7 C 0,0 C 85 % 85 % 0 % 1014,6 hPa 0,0 l/m 0,3 km/h (0 Bft) O-NO 67 0 min 0,0 UV-I 0,8 C 2,7 C 1,6 km/h (1 Bft)
_ Min-Zeit 04:55 08:35 04:40 04:40 04:40 00:00 16:50 16:50 00:00 23:30 - 00:00 - - - 00:00 04:35 04:40 00:00
Minimum _ 0,0 C 13,3 C 0,6 C -0,1 C -0,4 C 0,0 C 66 % 72 % 0 % 1014,6 hPa - 0,0 km/h (0 Bft) - - - 0,0 UV-I -2,1 C -0,4 C 0,0 km/h (0 Bft)
_ Max-Zeit 15:00 22:10 14:40 14:40 14:40 13:55 04:50 05:10 13:55 07:50 00:00 16:10 - - 07:10 00:00 14:00 14:40 16:15
Maximum _ 11,1 C 14,6 C 10,7 C 14,7 C 14,7 C 4,0 C 86 % 87 % 100 % 1021,8 hPa 0,0 l/m 7,6 km/h
W-SW (2 Bft)
- - 5 min 0,0 UV-I 6,1 C 14,7 C 14,2 km/h
NW (3 Bft)
Durchschnitt _ 5,0 C 13,9 C 4,9 C 5,6 C 5,3 C 0,8 C 80 % 82 % 20 % 1019,1 hPa #0,0 l/m 1,5 km/h (1 Bft) W-SW - #1:15 h 0,0 UV-I 1,7 C 5,3 C 2,2 km/h (1 Bft)
2014 www.wetterstation-wechselburg.de